Year,Month,Day,Hour,Minute,Value (Times are PST for insolation in W/m^2)
2006,09,07,00,00,0.00
2006,09,07,00,01,0.00
2006,09,07,00,02,0.00
2006,09,07,00,03,0.00
2006,09,07,00,04,0.00
2006,09,07,00,05,0.00
2006,09,07,00,06,0.00
2006,09,07,00,07,0.00
2006,09,07,00,08,0.00
2006,09,07,00,09,0.00
2006,09,07,00,10,0.00
2006,09,07,00,11,0.00
2006,09,07,00,12,0.00
2006,09,07,00,13,0.00
2006,09,07,00,14,0.00
2006,09,07,00,15,0.00
2006,09,07,00,16,0.00
2006,09,07,00,17,0.00
2006,09,07,00,18,0.00
2006,09,07,00,19,0.00
2006,09,07,00,20,0.00
2006,09,07,00,21,0.00
2006,09,07,00,22,0.00
2006,09,07,00,23,0.00
2006,09,07,00,24,0.00
2006,09,07,00,25,0.00
2006,09,07,00,26,0.00
2006,09,07,00,27,0.00
2006,09,07,00,28,0.00
2006,09,07,00,29,0.00
2006,09,07,00,30,0.00
2006,09,07,00,31,0.00
2006,09,07,00,32,0.00
2006,09,07,00,33,0.00
2006,09,07,00,34,0.00
2006,09,07,00,35,0.00
2006,09,07,00,36,0.00
2006,09,07,00,37,0.00
2006,09,07,00,38,0.00
2006,09,07,00,39,0.00
2006,09,07,00,40,0.00
2006,09,07,00,41,0.00
2006,09,07,00,42,0.00
2006,09,07,00,43,0.00
2006,09,07,00,44,0.00
2006,09,07,00,45,0.00
2006,09,07,00,46,0.00
2006,09,07,00,47,0.00
2006,09,07,00,48,0.00
2006,09,07,00,49,0.00
2006,09,07,00,50,0.00
2006,09,07,00,51,0.00
2006,09,07,00,52,0.00
2006,09,07,00,53,0.00
2006,09,07,00,54,0.00
2006,09,07,00,55,0.00
2006,09,07,00,56,0.00
2006,09,07,00,57,0.00
2006,09,07,00,58,0.00
2006,09,07,00,59,0.00
2006,09,07,01,00,0.00
2006,09,07,01,01,0.00
2006,09,07,01,02,0.00
2006,09,07,01,03,0.00
2006,09,07,01,04,0.00
2006,09,07,01,05,0.00
2006,09,07,01,06,0.00
2006,09,07,01,07,0.00
2006,09,07,01,08,0.00
2006,09,07,01,09,0.00
2006,09,07,01,10,0.00
2006,09,07,01,11,0.00
2006,09,07,01,12,0.00
2006,09,07,01,13,0.00
2006,09,07,01,14,0.00
2006,09,07,01,15,0.00
2006,09,07,01,16,0.00
2006,09,07,01,17,0.00
2006,09,07,01,18,0.00
2006,09,07,01,19,0.00
2006,09,07,01,20,0.00
2006,09,07,01,21,0.00
2006,09,07,01,22,0.00
2006,09,07,01,23,0.00
2006,09,07,01,24,0.00
2006,09,07,01,25,0.00
2006,09,07,01,26,0.00
2006,09,07,01,27,0.00
2006,09,07,01,28,0.00
2006,09,07,01,29,0.00
2006,09,07,01,30,0.00
2006,09,07,01,31,0.00
2006,09,07,01,32,0.00
2006,09,07,01,33,0.00
2006,09,07,01,34,0.00
2006,09,07,01,35,0.00
2006,09,07,01,36,0.00
2006,09,07,01,37,0.00
2006,09,07,01,38,0.00
2006,09,07,01,39,0.00
2006,09,07,01,40,0.00
2006,09,07,01,41,0.00
2006,09,07,01,42,0.00
2006,09,07,01,43,0.00
2006,09,07,01,44,0.00
2006,09,07,01,45,0.00
2006,09,07,01,46,0.00
2006,09,07,01,47,0.00
2006,09,07,01,48,0.00
2006,09,07,01,49,0.00
2006,09,07,01,50,0.00
2006,09,07,01,51,0.00
2006,09,07,01,52,0.00
2006,09,07,01,53,0.00
2006,09,07,01,54,0.00
2006,09,07,01,55,0.00
2006,09,07,01,56,0.00
2006,09,07,01,57,0.00
2006,09,07,01,58,0.00
2006,09,07,01,59,0.00
2006,09,07,02,00,0.00
2006,09,07,02,01,0.00
2006,09,07,02,02,0.00
2006,09,07,02,03,0.00
2006,09,07,02,04,0.00
2006,09,07,02,05,0.00
2006,09,07,02,06,0.00
2006,09,07,02,07,0.00
2006,09,07,02,08,0.00
2006,09,07,02,09,0.00
2006,09,07,02,10,0.00
2006,09,07,02,11,0.00
2006,09,07,02,12,0.00
2006,09,07,02,13,0.00
2006,09,07,02,14,0.00
2006,09,07,02,15,0.00
2006,09,07,02,16,0.00
2006,09,07,02,17,0.00
2006,09,07,02,18,0.00
2006,09,07,02,19,0.00
2006,09,07,02,20,0.00
2006,09,07,02,21,0.00
2006,09,07,02,22,0.00
2006,09,07,02,23,0.00
2006,09,07,02,24,0.00
2006,09,07,02,25,0.00
2006,09,07,02,26,0.00
2006,09,07,02,27,0.00
2006,09,07,02,28,0.00
2006,09,07,02,29,0.00
2006,09,07,02,30,0.00
2006,09,07,02,31,0.00
2006,09,07,02,32,0.00
2006,09,07,02,33,0.00
2006,09,07,02,34,0.00
2006,09,07,02,35,0.00
2006,09,07,02,36,0.00
2006,09,07,02,37,0.00
2006,09,07,02,38,0.00
2006,09,07,02,39,0.00
2006,09,07,02,40,0.00
2006,09,07,02,41,0.00
2006,09,07,02,42,0.00
2006,09,07,02,43,0.00
2006,09,07,02,44,0.00
2006,09,07,02,45,0.00
2006,09,07,02,46,0.00
2006,09,07,02,47,0.00
2006,09,07,02,48,0.00
2006,09,07,02,49,0.00
2006,09,07,02,50,0.00
2006,09,07,02,51,0.00
2006,09,07,02,52,0.00
2006,09,07,02,53,0.00
2006,09,07,02,54,0.00
2006,09,07,02,55,0.00
2006,09,07,02,56,0.00
2006,09,07,02,57,0.00
2006,09,07,02,58,0.00
2006,09,07,02,59,0.00
2006,09,07,03,00,0.00
2006,09,07,03,01,0.00
2006,09,07,03,02,0.00
2006,09,07,03,03,0.00
2006,09,07,03,04,0.00
2006,09,07,03,05,0.00
2006,09,07,03,06,0.00
2006,09,07,03,07,0.00
2006,09,07,03,08,0.00
2006,09,07,03,09,0.00
2006,09,07,03,10,0.00
2006,09,07,03,11,0.00
2006,09,07,03,12,0.00
2006,09,07,03,13,0.00
2006,09,07,03,14,0.00
2006,09,07,03,15,0.00
2006,09,07,03,16,0.00
2006,09,07,03,17,0.00
2006,09,07,03,18,0.00
2006,09,07,03,19,0.00
2006,09,07,03,20,0.00
2006,09,07,03,21,0.00
2006,09,07,03,22,0.00
2006,09,07,03,23,0.00
2006,09,07,03,24,0.00
2006,09,07,03,25,0.00
2006,09,07,03,26,0.00
2006,09,07,03,27,0.00
2006,09,07,03,28,0.00
2006,09,07,03,29,0.00
2006,09,07,03,30,0.00
2006,09,07,03,31,0.00
2006,09,07,03,32,0.00
2006,09,07,03,33,0.00
2006,09,07,03,34,0.00
2006,09,07,03,35,0.00
2006,09,07,03,36,0.00
2006,09,07,03,37,0.00
2006,09,07,03,38,0.00
2006,09,07,03,39,0.00
2006,09,07,03,40,0.00
2006,09,07,03,41,0.00
2006,09,07,03,42,0.00
2006,09,07,03,43,0.00
2006,09,07,03,44,0.00
2006,09,07,03,45,0.00
2006,09,07,03,46,0.00
2006,09,07,03,47,0.00
2006,09,07,03,48,0.00
2006,09,07,03,49,0.00
2006,09,07,03,50,0.00
2006,09,07,03,51,0.00
2006,09,07,03,52,0.00
2006,09,07,03,53,0.00
2006,09,07,03,54,0.00
2006,09,07,03,55,0.00
2006,09,07,03,56,0.00
2006,09,07,03,57,0.00
2006,09,07,03,58,0.00
2006,09,07,03,59,0.00
2006,09,07,04,00,0.00
2006,09,07,04,01,0.00
2006,09,07,04,02,0.00
2006,09,07,04,03,0.00
2006,09,07,04,04,0.00
2006,09,07,04,05,0.00
2006,09,07,04,06,0.00
2006,09,07,04,07,0.00
2006,09,07,04,08,0.00
2006,09,07,04,09,0.00
2006,09,07,04,10,0.00
2006,09,07,04,11,0.00
2006,09,07,04,12,0.00
2006,09,07,04,13,0.00
2006,09,07,04,14,0.00
2006,09,07,04,15,0.00
2006,09,07,04,16,0.00
2006,09,07,04,17,0.00
2006,09,07,04,18,0.00
2006,09,07,04,19,0.00
2006,09,07,04,20,0.00
2006,09,07,04,21,0.00
2006,09,07,04,22,0.00
2006,09,07,04,23,0.00
2006,09,07,04,24,0.00
2006,09,07,04,25,0.00
2006,09,07,04,26,0.00
2006,09,07,04,27,0.00
2006,09,07,04,28,0.00
2006,09,07,04,29,0.00
2006,09,07,04,30,0.00
2006,09,07,04,31,0.00
2006,09,07,04,32,0.00
2006,09,07,04,33,0.00
2006,09,07,04,34,0.00
2006,09,07,04,35,0.00
2006,09,07,04,36,0.00
2006,09,07,04,37,0.00
2006,09,07,04,38,0.00
2006,09,07,04,39,0.00
2006,09,07,04,40,0.00
2006,09,07,04,41,0.00
2006,09,07,04,42,0.00
2006,09,07,04,43,0.00
2006,09,07,04,44,0.00
2006,09,07,04,45,0.00
2006,09,07,04,46,0.00
2006,09,07,04,47,0.00
2006,09,07,04,48,0.00
2006,09,07,04,49,0.00
2006,09,07,04,50,0.00
2006,09,07,04,51,0.00
2006,09,07,04,52,0.00
2006,09,07,04,53,0.00
2006,09,07,04,54,0.00
2006,09,07,04,55,0.00
2006,09,07,04,56,0.00
2006,09,07,04,57,0.00
2006,09,07,04,58,0.00
2006,09,07,04,59,0.00
2006,09,07,05,00,0.00
2006,09,07,05,01,0.00
2006,09,07,05,02,0.00
2006,09,07,05,03,0.00
2006,09,07,05,04,0.00
2006,09,07,05,05,0.00
2006,09,07,05,06,0.00
2006,09,07,05,07,0.00
2006,09,07,05,08,0.00
2006,09,07,05,09,0.00
2006,09,07,05,10,0.00
2006,09,07,05,11,0.00
2006,09,07,05,12,0.00
2006,09,07,05,13,0.00
2006,09,07,05,14,0.00
2006,09,07,05,15,0.00
2006,09,07,05,16,0.00
2006,09,07,05,17,0.00
2006,09,07,05,18,0.00
2006,09,07,05,19,0.00
2006,09,07,05,20,0.00
2006,09,07,05,21,0.00
2006,09,07,05,22,0.00
2006,09,07,05,23,0.00
2006,09,07,05,24,0.00
2006,09,07,05,25,0.00
2006,09,07,05,26,0.00
2006,09,07,05,27,0.00
2006,09,07,05,28,0.00
2006,09,07,05,29,0.00
2006,09,07,05,30,0.00
2006,09,07,05,31,0.00
2006,09,07,05,32,0.00
2006,09,07,05,33,0.00
2006,09,07,05,34,0.00
2006,09,07,05,35,0.00
2006,09,07,05,36,0.00
2006,09,07,05,37,0.00
2006,09,07,05,38,0.00
2006,09,07,05,39,0.00
2006,09,07,05,40,0.00
2006,09,07,05,41,0.00
2006,09,07,05,42,0.00
2006,09,07,05,43,0.00
2006,09,07,05,44,0.00
2006,09,07,05,45,0.00
2006,09,07,05,46,0.00
2006,09,07,05,47,0.00
2006,09,07,05,48,0.00
2006,09,07,05,49,0.00
2006,09,07,05,50,0.00
2006,09,07,05,51,0.00
2006,09,07,05,52,0.00
2006,09,07,05,53,0.00
2006,09,07,05,54,0.00
2006,09,07,05,55,0.00
2006,09,07,05,56,0.00
2006,09,07,05,57,0.00
2006,09,07,05,58,0.00
2006,09,07,05,59,0.00
2006,09,07,06,00,0.00
2006,09,07,06,01,0.00
2006,09,07,06,02,0.00
2006,09,07,06,03,0.00
2006,09,07,06,04,0.00
2006,09,07,06,05,0.00
2006,09,07,06,06,0.00
2006,09,07,06,07,0.00
2006,09,07,06,08,0.00
2006,09,07,06,09,0.00
2006,09,07,06,10,0.00
2006,09,07,06,11,0.00
2006,09,07,06,12,0.00
2006,09,07,06,13,0.00
2006,09,07,06,14,0.00
2006,09,07,06,15,0.00
2006,09,07,06,16,0.00
2006,09,07,06,17,0.00
2006,09,07,06,18,0.00
2006,09,07,06,19,0.00
2006,09,07,06,20,0.00
2006,09,07,06,21,0.00
2006,09,07,06,22,0.00
2006,09,07,06,23,0.00
2006,09,07,06,24,0.00
2006,09,07,06,25,0.00
2006,09,07,06,26,0.00
2006,09,07,06,27,0.00
2006,09,07,06,28,0.00
2006,09,07,06,29,0.00
2006,09,07,06,30,0.00
2006,09,07,06,31,0.00
2006,09,07,06,32,0.00
2006,09,07,06,33,0.00
2006,09,07,06,34,0.00
2006,09,07,06,35,0.00
2006,09,07,06,36,0.00
2006,09,07,06,37,0.00
2006,09,07,06,38,0.00
2006,09,07,06,39,0.00
2006,09,07,06,40,0.00
2006,09,07,06,41,0.00
2006,09,07,06,42,0.00
2006,09,07,06,43,0.00
2006,09,07,06,44,3.20
2006,09,07,06,45,5.00
2006,09,07,06,46,5.00
2006,09,07,06,47,5.00
2006,09,07,06,48,5.80
2006,09,07,06,49,7.00
2006,09,07,06,50,7.00
2006,09,07,06,51,7.00
2006,09,07,06,52,7.20
2006,09,07,06,53,9.00
2006,09,07,06,54,9.00
2006,09,07,06,55,10.20
2006,09,07,06,56,11.00
2006,09,07,06,57,11.00
2006,09,07,06,58,12.00
2006,09,07,06,59,12.00
2006,09,07,07,00,12.00
2006,09,07,07,01,13.10
2006,09,07,07,02,14.00
2006,09,07,07,03,14.00
2006,09,07,07,04,14.40
2006,09,07,07,05,16.60
2006,09,07,07,06,18.00
2006,09,07,07,07,18.00
2006,09,07,07,08,18.00
2006,09,07,07,09,18.00
2006,09,07,07,10,18.00
2006,09,07,07,11,24.00
2006,09,07,07,12,36.00
2006,09,07,07,13,34.50
2006,09,07,07,14,29.20
2006,09,07,07,15,34.60
2006,09,07,07,16,37.40
2006,09,07,07,17,51.40
2006,09,07,07,18,62.30
2006,09,07,07,19,68.20
2006,09,07,07,20,69.00
2006,09,07,07,21,69.40
2006,09,07,07,22,76.20
2006,09,07,07,23,77.70
2006,09,07,07,24,81.10
2006,09,07,07,25,83.70
2006,09,07,07,26,85.70
2006,09,07,07,27,89.90
2006,09,07,07,28,91.50
2006,09,07,07,29,94.60
2006,09,07,07,30,97.00
2006,09,07,07,31,99.00
2006,09,07,07,32,101.70
2006,09,07,07,33,105.20
2006,09,07,07,34,107.60
2006,09,07,07,35,109.00
2006,09,07,07,36,111.20
2006,09,07,07,37,115.20
2006,09,07,07,38,117.70
2006,09,07,07,39,120.10
2006,09,07,07,40,121.60
2006,09,07,07,41,124.80
2006,09,07,07,42,127.00
2006,09,07,07,43,129.20
2006,09,07,07,44,131.80
2006,09,07,07,45,134.20
2006,09,07,07,46,135.60
2006,09,07,07,47,138.90
2006,09,07,07,48,141.60
2006,09,07,07,49,143.50
2006,09,07,07,50,145.80
2006,09,07,07,51,148.00
2006,09,07,07,52,149.60
2006,09,07,07,53,153.00
2006,09,07,07,54,153.00
2006,09,07,07,55,156.80
2006,09,07,07,56,158.20
2006,09,07,07,57,162.60
2006,09,07,07,58,165.70
2006,09,07,07,59,167.00
2006,09,07,08,00,169.60
2006,09,07,08,01,171.80
2006,09,07,08,02,176.00
2006,09,07,08,03,178.00
2006,09,07,08,04,179.20
2006,09,07,08,05,181.00
2006,09,07,08,06,183.80
2006,09,07,08,07,185.80
2006,09,07,08,08,188.30
2006,09,07,08,09,192.20
2006,09,07,08,10,193.70
2006,09,07,08,11,196.00
2006,09,07,08,12,198.40
2006,09,07,08,13,201.40
2006,09,07,08,14,204.30
2006,09,07,08,15,206.30
2006,09,07,08,16,208.70
2006,09,07,08,17,212.10
2006,09,07,08,18,213.70
2006,09,07,08,19,217.40
2006,09,07,08,20,220.10
2006,09,07,08,21,222.20
2006,09,07,08,22,225.80
2006,09,07,08,23,228.10
2006,09,07,08,24,229.80
2006,09,07,08,25,233.60
2006,09,07,08,26,234.50
2006,09,07,08,27,238.20
2006,09,07,08,28,241.90
2006,09,07,08,29,244.80
2006,09,07,08,30,247.50
2006,09,07,08,31,250.70
2006,09,07,08,32,255.40
2006,09,07,08,33,258.00
2006,09,07,08,34,260.90
2006,09,07,08,35,262.00
2006,09,07,08,36,266.00
2006,09,07,08,37,267.00
2006,09,07,08,38,268.90
2006,09,07,08,39,276.00
2006,09,07,08,40,278.50
2006,09,07,08,41,281.00
2006,09,07,08,42,285.80
2006,09,07,08,43,287.70
2006,09,07,08,44,294.20
2006,09,07,08,45,295.70
2006,09,07,08,46,299.20
2006,09,07,08,47,301.00
2006,09,07,08,48,307.40
2006,09,07,08,49,313.20
2006,09,07,08,50,317.20
2006,09,07,08,51,321.30
2006,09,07,08,52,325.20
2006,09,07,08,53,328.40
2006,09,07,08,54,329.00
2006,09,07,08,55,332.30
2006,09,07,08,56,334.50
2006,09,07,08,57,336.80
2006,09,07,08,58,338.50
2006,09,07,08,59,340.50
2006,09,07,09,00,341.00
2006,09,07,09,01,342.70
2006,09,07,09,02,337.70
2006,09,07,09,03,334.00
2006,09,07,09,04,340.20
2006,09,07,09,05,341.00
2006,09,07,09,06,341.00
2006,09,07,09,07,344.00
2006,09,07,09,08,350.50
2006,09,07,09,09,355.90
2006,09,07,09,10,358.20
2006,09,07,09,11,359.80
2006,09,07,09,12,361.80
2006,09,07,09,13,362.40
2006,09,07,09,14,364.00
2006,09,07,09,15,365.50
2006,09,07,09,16,369.50
2006,09,07,09,17,372.50
2006,09,07,09,18,375.70
2006,09,07,09,19,377.10
2006,09,07,09,20,381.00
2006,09,07,09,21,381.00
2006,09,07,09,22,385.50
2006,09,07,09,23,389.60
2006,09,07,09,24,391.90
2006,09,07,09,25,393.40
2006,09,07,09,26,399.00
2006,09,07,09,27,401.00
2006,09,07,09,28,403.60
2006,09,07,09,29,405.60
2006,09,07,09,30,409.80
2006,09,07,09,31,411.20
2006,09,07,09,32,415.00
2006,09,07,09,33,417.80
2006,09,07,09,34,421.40
2006,09,07,09,35,423.70
2006,09,07,09,36,425.40
2006,09,07,09,37,429.00
2006,09,07,09,38,430.30
2006,09,07,09,39,432.00
2006,09,07,09,40,436.20
2006,09,07,09,41,438.90
2006,09,07,09,42,441.30
2006,09,07,09,43,443.90
2006,09,07,09,44,446.80
2006,09,07,09,45,449.10
2006,09,07,09,46,450.00
2006,09,07,09,47,453.40
2006,09,07,09,48,455.60
2006,09,07,09,49,459.70
2006,09,07,09,50,462.40
2006,09,07,09,51,465.20
2006,09,07,09,52,467.50
2006,09,07,09,53,469.10
2006,09,07,09,54,473.30
2006,09,07,09,55,475.90
2006,09,07,09,56,478.00
2006,09,07,09,57,478.00
2006,09,07,09,58,482.00
2006,09,07,09,59,485.00
2006,09,07,10,00,489.20
2006,09,07,10,01,490.70
2006,09,07,10,02,492.00
2006,09,07,10,03,493.30
2006,09,07,10,04,494.00
2006,09,07,10,05,499.10
2006,09,07,10,06,503.20
2006,09,07,10,07,504.00
2006,09,07,10,08,505.10
2006,09,07,10,09,507.30
2006,09,07,10,10,511.00
2006,09,07,10,11,512.50
2006,09,07,10,12,514.50
2006,09,07,10,13,513.80
2006,09,07,10,14,516.10
2006,09,07,10,15,518.30
2006,09,07,10,16,519.00
2006,09,07,10,17,522.00
2006,09,07,10,18,523.80
2006,09,07,10,19,529.00
2006,09,07,10,20,531.40
2006,09,07,10,21,533.70
2006,09,07,10,22,535.70
2006,09,07,10,23,536.60
2006,09,07,10,24,540.30
2006,09,07,10,25,541.90
2006,09,07,10,26,544.20
2006,09,07,10,27,546.40
2006,09,07,10,28,547.00
2006,09,07,10,29,550.30
2006,09,07,10,30,552.70
2006,09,07,10,31,554.50
2006,09,07,10,32,556.20
2006,09,07,10,33,558.50
2006,09,07,10,34,560.80
2006,09,07,10,35,563.00
2006,09,07,10,36,563.90
2006,09,07,10,37,566.00
2006,09,07,10,38,567.30
2006,09,07,10,39,570.20
2006,09,07,10,40,572.80
2006,09,07,10,41,573.50
2006,09,07,10,42,575.80
2006,09,07,10,43,578.70
2006,09,07,10,44,581.30
2006,09,07,10,45,583.60
2006,09,07,10,46,584.10
2006,09,07,10,47,585.00
2006,09,07,10,48,585.00
2006,09,07,10,49,588.30
2006,09,07,10,50,591.70
2006,09,07,10,51,592.00
2006,09,07,10,52,592.60
2006,09,07,10,53,596.60
2006,09,07,10,54,598.00
2006,09,07,10,55,598.00
2006,09,07,10,56,598.00
2006,09,07,10,57,598.00
2006,09,07,10,58,599.30
2006,09,07,10,59,608.00
2006,09,07,11,00,609.60
2006,09,07,11,01,612.00
2006,09,07,11,02,614.10
2006,09,07,11,03,615.00
2006,09,07,11,04,617.20
2006,09,07,11,05,619.50
2006,09,07,11,06,621.00
2006,09,07,11,07,623.90
2006,09,07,11,08,626.00
2006,09,07,11,09,615.00
2006,09,07,11,10,624.70
2006,09,07,11,11,619.70
2006,09,07,11,12,626.90
2006,09,07,11,13,629.70
2006,09,07,11,14,629.60
2006,09,07,11,15,630.80
2006,09,07,11,16,633.40
2006,09,07,11,17,635.00
2006,09,07,11,18,636.50
2006,09,07,11,19,638.00
2006,09,07,11,20,641.80
2006,09,07,11,21,644.90
2006,09,07,11,22,647.40
2006,09,07,11,23,649.30
2006,09,07,11,24,650.90
2006,09,07,11,25,652.00
2006,09,07,11,26,653.60
2006,09,07,11,27,656.70
2006,09,07,11,28,657.40
2006,09,07,11,29,659.00
2006,09,07,11,30,655.30
2006,09,07,11,31,653.30
2006,09,07,11,32,654.00
2006,09,07,11,33,660.60
2006,09,07,11,34,661.50
2006,09,07,11,35,663.00
2006,09,07,11,36,660.90
2006,09,07,11,37,659.00
2006,09,07,11,38,660.60
2006,09,07,11,39,654.50
2006,09,07,11,40,660.00
2006,09,07,11,41,664.20
2006,09,07,11,42,667.10
2006,09,07,11,43,666.60
2006,09,07,11,44,662.00
2006,09,07,11,45,662.00
2006,09,07,11,46,668.50
2006,09,07,11,47,670.00
2006,09,07,11,48,670.00
2006,09,07,11,49,668.60
2006,09,07,11,50,668.00
2006,09,07,11,51,666.00
2006,09,07,11,52,669.30
2006,09,07,11,53,677.90
2006,09,07,11,54,680.80
2006,09,07,11,55,683.50
2006,09,07,11,56,686.50
2006,09,07,11,57,686.50
2006,09,07,11,58,689.00
2006,09,07,11,59,689.00
2006,09,07,12,00,689.00
2006,09,07,12,01,687.50
2006,09,07,12,02,692.40
2006,09,07,12,03,693.20
2006,09,07,12,04,694.00
2006,09,07,12,05,696.00
2006,09,07,12,06,698.00
2006,09,07,12,07,698.00
2006,09,07,12,08,699.80
2006,09,07,12,09,699.20
2006,09,07,12,10,697.60
2006,09,07,12,11,697.90
2006,09,07,12,12,694.00
2006,09,07,12,13,693.00
2006,09,07,12,14,693.90
2006,09,07,12,15,694.00
2006,09,07,12,16,688.40
2006,09,07,12,17,680.00
2006,09,07,12,18,690.40
2006,09,07,12,19,696.00
2006,09,07,12,20,694.40
2006,09,07,12,21,695.20
2006,09,07,12,22,686.60
2006,09,07,12,23,682.10
2006,09,07,12,24,690.80
2006,09,07,12,25,695.40
2006,09,07,12,26,702.20
2006,09,07,12,27,700.90
2006,09,07,12,28,703.00
2006,09,07,12,29,704.10
2006,09,07,12,30,702.20
2006,09,07,12,31,708.70
2006,09,07,12,32,709.70
2006,09,07,12,33,708.00
2006,09,07,12,34,710.70
2006,09,07,12,35,714.00
2006,09,07,12,36,712.50
2006,09,07,12,37,714.70
2006,09,07,12,38,715.00
2006,09,07,12,39,715.60
2006,09,07,12,40,717.00
2006,09,07,12,41,717.00
2006,09,07,12,42,715.40
2006,09,07,12,43,716.80
2006,09,07,12,44,717.00
2006,09,07,12,45,717.70
2006,09,07,12,46,718.00
2006,09,07,12,47,718.30
2006,09,07,12,48,719.00
2006,09,07,12,49,719.00
2006,09,07,12,50,719.00
2006,09,07,12,51,719.00
2006,09,07,12,52,719.00
2006,09,07,12,53,720.30
2006,09,07,12,54,719.30
2006,09,07,12,55,719.20
2006,09,07,12,56,721.00
2006,09,07,12,57,721.00
2006,09,07,12,58,721.00
2006,09,07,12,59,721.00
2006,09,07,13,00,721.00
2006,09,07,13,01,721.10
2006,09,07,13,02,722.00
2006,09,07,13,03,722.00
2006,09,07,13,04,722.00
2006,09,07,13,05,722.00
2006,09,07,13,06,722.00
2006,09,07,13,07,722.00
2006,09,07,13,08,721.80
2006,09,07,13,09,720.20
2006,09,07,13,10,719.00
2006,09,07,13,11,720.50
2006,09,07,13,12,715.90
2006,09,07,13,13,721.20
2006,09,07,13,14,722.60
2006,09,07,13,15,722.70
2006,09,07,13,16,721.60
2006,09,07,13,17,722.00
2006,09,07,13,18,722.00
2006,09,07,13,19,722.00
2006,09,07,13,20,722.00
2006,09,07,13,21,721.50
2006,09,07,13,22,721.60
2006,09,07,13,23,721.20
2006,09,07,13,24,721.70
2006,09,07,13,25,717.00
2006,09,07,13,26,717.70
2006,09,07,13,27,719.00
2006,09,07,13,28,719.00
2006,09,07,13,29,717.40
2006,09,07,13,30,717.00
2006,09,07,13,31,713.00
2006,09,07,13,32,699.20
2006,09,07,13,33,699.10
2006,09,07,13,34,691.50
2006,09,07,13,35,687.00
2006,09,07,13,36,688.80
2006,09,07,13,37,703.20
2006,09,07,13,38,699.30
2006,09,07,13,39,702.10
2006,09,07,13,40,703.00
2006,09,07,13,41,703.00
2006,09,07,13,42,703.00
2006,09,07,13,43,706.00
2006,09,07,13,44,710.20
2006,09,07,13,45,701.30
2006,09,07,13,46,708.40
2006,09,07,13,47,708.60
2006,09,07,13,48,708.20
2006,09,07,13,49,710.00
2006,09,07,13,50,711.80
2006,09,07,13,51,712.80
2006,09,07,13,52,712.00
2006,09,07,13,53,712.00
2006,09,07,13,54,710.60
2006,09,07,13,55,704.20
2006,09,07,13,56,707.00
2006,09,07,13,57,705.80
2006,09,07,13,58,702.10
2006,09,07,13,59,701.00
2006,09,07,14,00,699.80
2006,09,07,14,01,694.00
2006,09,07,14,02,692.80
2006,09,07,14,03,690.30
2006,09,07,14,04,693.20
2006,09,07,14,05,679.40
2006,09,07,14,06,690.00
2006,09,07,14,07,687.80
2006,09,07,14,08,690.00
2006,09,07,14,09,685.80
2006,09,07,14,10,685.60
2006,09,07,14,11,687.10
2006,09,07,14,12,689.00
2006,09,07,14,13,688.30
2006,09,07,14,14,688.00
2006,09,07,14,15,689.00
2006,09,07,14,16,690.60
2006,09,07,14,17,688.90
2006,09,07,14,18,686.00
2006,09,07,14,19,685.20
2006,09,07,14,20,684.00
2006,09,07,14,21,682.60
2006,09,07,14,22,685.40
2006,09,07,14,23,684.10
2006,09,07,14,24,683.50
2006,09,07,14,25,681.20
2006,09,07,14,26,680.00
2006,09,07,14,27,680.00
2006,09,07,14,28,677.50
2006,09,07,14,29,667.70
2006,09,07,14,30,663.80
2006,09,07,14,31,664.60
2006,09,07,14,32,669.20
2006,09,07,14,33,667.40
2006,09,07,14,34,664.10
2006,09,07,14,35,668.90
2006,09,07,14,36,663.90
2006,09,07,14,37,656.50
2006,09,07,14,38,645.00
2006,09,07,14,39,641.50
2006,09,07,14,40,635.30
2006,09,07,14,41,626.30
2006,09,07,14,42,632.20
2006,09,07,14,43,633.00
2006,09,07,14,44,629.20
2006,09,07,14,45,624.30
2006,09,07,14,46,631.00
2006,09,07,14,47,626.30
2006,09,07,14,48,635.00
2006,09,07,14,49,637.40
2006,09,07,14,50,635.80
2006,09,07,14,51,633.00
2006,09,07,14,52,637.30
2006,09,07,14,53,636.80
2006,09,07,14,54,640.00
2006,09,07,14,55,642.60
2006,09,07,14,56,647.60
2006,09,07,14,57,647.40
2006,09,07,14,58,644.90
2006,09,07,14,59,642.20
2006,09,07,15,00,640.00
2006,09,07,15,01,640.00
2006,09,07,15,02,640.00
2006,09,07,15,03,638.30
2006,09,07,15,04,635.30
2006,09,07,15,05,629.60
2006,09,07,15,06,630.20
2006,09,07,15,07,628.50
2006,09,07,15,08,626.50
2006,09,07,15,09,626.00
2006,09,07,15,10,624.70
2006,09,07,15,11,617.00
2006,09,07,15,12,609.00
2006,09,07,15,13,586.50
2006,09,07,15,14,577.70
2006,09,07,15,15,578.00
2006,09,07,15,16,577.20
2006,09,07,15,17,580.20
2006,09,07,15,18,583.70
2006,09,07,15,19,582.00
2006,09,07,15,20,582.00
2006,09,07,15,21,591.40
2006,09,07,15,22,601.80
2006,09,07,15,23,604.30
2006,09,07,15,24,602.00
2006,09,07,15,25,601.00
2006,09,07,15,26,602.50
2006,09,07,15,27,599.40
2006,09,07,15,28,598.80
2006,09,07,15,29,597.30
2006,09,07,15,30,595.00
2006,09,07,15,31,594.00
2006,09,07,15,32,592.50
2006,09,07,15,33,589.20
2006,09,07,15,34,587.00
2006,09,07,15,35,586.30
2006,09,07,15,36,584.50
2006,09,07,15,37,584.00
2006,09,07,15,38,580.80
2006,09,07,15,39,578.00
2006,09,07,15,40,576.50
2006,09,07,15,41,574.30
2006,09,07,15,42,572.00
2006,09,07,15,43,570.30
2006,09,07,15,44,568.40
2006,09,07,15,45,567.60
2006,09,07,15,46,564.00
2006,09,07,15,47,562.70
2006,09,07,15,48,559.90
2006,09,07,15,49,557.50
2006,09,07,15,50,555.30
2006,09,07,15,51,554.80
2006,09,07,15,52,554.00
2006,09,07,15,53,554.00
2006,09,07,15,54,548.60
2006,09,07,15,55,543.50
2006,09,07,15,56,541.30
2006,09,07,15,57,540.80
2006,09,07,15,58,540.00
2006,09,07,15,59,537.30
2006,09,07,16,00,533.40
2006,09,07,16,01,531.40
2006,09,07,16,02,529.10
2006,09,07,16,03,526.80
2006,09,07,16,04,525.40
2006,09,07,16,05,524.00
2006,09,07,16,06,521.50
2006,09,07,16,07,516.20
2006,09,07,16,08,513.10
2006,09,07,16,09,511.60
2006,09,07,16,10,509.40
2006,09,07,16,11,506.20
2006,09,07,16,12,503.40
2006,09,07,16,13,501.50
2006,09,07,16,14,497.20
2006,09,07,16,15,496.80
2006,09,07,16,16,496.00
2006,09,07,16,17,496.00
2006,09,07,16,18,496.00
2006,09,07,16,19,488.80
2006,09,07,16,20,483.20
2006,09,07,16,21,482.20
2006,09,07,16,22,477.20
2006,09,07,16,23,471.00
2006,09,07,16,24,464.50
2006,09,07,16,25,462.00
2006,09,07,16,26,459.50
2006,09,07,16,27,461.20
2006,09,07,16,28,457.40
2006,09,07,16,29,455.00
2006,09,07,16,30,455.00
2006,09,07,16,31,455.00
2006,09,07,16,32,453.70
2006,09,07,16,33,450.80
2006,09,07,16,34,448.00
2006,09,07,16,35,446.40
2006,09,07,16,36,443.50
2006,09,07,16,37,443.00
2006,09,07,16,38,437.70
2006,09,07,16,39,434.70
2006,09,07,16,40,432.00
2006,09,07,16,41,430.20
2006,09,07,16,42,429.00
2006,09,07,16,43,424.50
2006,09,07,16,44,421.70
2006,09,07,16,45,420.00
2006,09,07,16,46,420.00
2006,09,07,16,47,403.20
2006,09,07,16,48,362.80
2006,09,07,16,49,369.90
2006,09,07,16,50,397.60
2006,09,07,16,51,410.60
2006,09,07,16,52,408.10
2006,09,07,16,53,404.80
2006,09,07,16,54,403.20
2006,09,07,16,55,401.10
2006,09,07,16,56,401.00
2006,09,07,16,57,399.50
2006,09,07,16,58,395.50
2006,09,07,16,59,394.00
2006,09,07,17,00,392.40
2006,09,07,17,01,388.40
2006,09,07,17,02,388.00
2006,09,07,17,03,387.60
2006,09,07,17,04,378.00
2006,09,07,17,05,321.00
2006,09,07,17,06,279.30
2006,09,07,17,07,239.20
2006,09,07,17,08,262.70
2006,09,07,17,09,326.40
2006,09,07,17,10,346.20
2006,09,07,17,11,360.70
2006,09,07,17,12,360.60